{"data":{"norad_id":44881,"intl_designator":"2019-093C","name":"TIANYAN 01","alt_names":[],"object_type":"PAYLOAD","status":"ACTIVE","operator":null,"country":"PRC","launch_date":"2019-12-20","launch_site_code":"TAISC","launch_vehicle":null,"mission":null,"orbit_class":"UNKNOWN","rcs_meters":null,"size_class":null,"mass_kg":null,"dimensions":null,"purposes":["comms"],"wikipedia_slug":null,"has_3d_model":false,"image_url":null,"decayed_at":null,"tle_current":{"epoch":"2026-09-20T03:40:55.912224Z","epoch_age_seconds":44491,"freshness":"FRESH","line1":"1 44881U 19093C   26263.15342491  .00000638  00000+0  77760-4 0  9992","line2":"2 44881  97.7446 333.0332 0014586 130.1550 230.0946 14.86638406365521","mean_motion":14.86638406,"eccentricity":0.0014586,"inclination_deg":97.7446,"raan_deg":333.0332,"arg_perigee_deg":130.155,"mean_anomaly_deg":230.0946,"bstar":7.776e-5,"rev_number":36552,"period_min":96.862827852976,"perigee_km":598.25729289716,"apogee_km":618.63855844232,"semimajor_km":6986.5849256697,"source":"CELESTRAK","updated_at":"2026-09-20T09:00:45.236023Z"}}}